Simultaneous Nadir Overpasses (SNOs) Predictions

Prediction of SNOs between LANDSAT-8 and METOP-A Satellite Orbit:

Table of predicted SNOs for the next 14.0 days since TLE Epoch: 4/17/2021
Index Date (LANDSAT-8) Time (LANDSAT-8) Lat,Lon (LANDSAT-8) SZA (LANDSAT-8 ) Date (METOP-A) Time (METOP-A) Lat,Lon (METOP-A) SZA (METOP-A ) Distance(km) Time Diff (sec)
1 04/18/2021 21:25:12 -81.42, 83.12 107.21 04/18/2021 21:24:09 -81.42, 83.00 107.25 1.93 63
2 04/18/2021 22:14:38 81.42,-109.15 72.79 04/18/2021 22:14:49 81.41,-109.29 72.77 2.83 11
3 04/21/2021 16:59:26 -81.41, 149.51 108.16 04/21/2021 16:58:30 -81.41, 149.44 108.19 1.11 56
4 04/21/2021 17:48:52 81.42, -42.78 71.84 04/21/2021 17:49:10 81.40, -42.88 71.83 2.16 18
5 04/24/2021 12:33:40 -81.41,-144.13 109.09 04/24/2021 12:32:51 -81.41,-144.13 109.11 0.25 49
6 04/24/2021 13:23:06 81.41, 23.55 70.91 04/24/2021 13:23:31 81.40, 23.51 70.91 1.17 25
7 04/27/2021 08:07:53 -81.40, -77.81 110.00 04/27/2021 08:07:11 -81.41, -77.72 110.00 1.65 42
8 04/27/2021 08:57:19 81.40, 89.85 70.00 04/27/2021 08:57:51 81.40, 89.88 70.02 0.65 32
9 04/30/2021 03:42:06 -81.42, -11.13 110.82 04/30/2021 03:41:32 -81.41, -11.32 110.86 3.22 34



Historial Predications of SNOs between LANDSAT-8 and METOP-A
